Date String (YYYY-MM-DD hh:mm:ss) UTC,Instrument flags,absolute air pressure of the measurement (hPa),sample flow rate (lpm),inlet stack bypass flow (lpm),air temperature of the measurement (°C),ambient temperature measured by the external sensor (°C),aerosol sample conditioner tube jacket temperature (°C),OPC LED temperature (°C),internal box temperature (°C),relative humidity of the measurement (%),span deviation,mass concentration of particles derived from Lorenz-Mie calculation of OPC scattering (μg/m³),mass concentration of particles derived from Lorenz-Mie calculation of OPC scattering (μg/m³),mass concentration of particles derived from Lorenz-Mie calculation of OPC scattering (μg/m³)
DateTimeUTC,F1_M11,P_M11,Q1_M11,Q2_M11,T1_M11,T2_M11,T3_M11,T4_M11,T5_M11,U1_M11,ZSPAN_M11,X2_M11,X0_M11,X1_M11
2024-01-06 22:00:00,SystemResetWarning,0820.1,5.00,000.00,020.1,019.2,000.0,028.4,021.4,6.5,0000.0,0001.17,0003.43,0001.03
2024-01-06 22:01:00,SystemResetWarning,0820.0,5.00,000.00,020.1,019.2,000.0,028.4,021.5,6.5,0000.0,0001.17,0003.44,0001.02
2024-01-06 22:02:00,SystemResetWarning,0820.0,5.00,000.00,020.1,019.2,000.0,028.4,021.5,6.5,0000.0,0001.22,0003.60,0001.02
2024-01-06 22:03:00,SystemResetWarning,0820.0,5.00,000.00,020.2,019.2,000.0,028.4,021.5,6.5,0000.0,0001.23,0003.57,0001.01
2024-01-06 22:04:00,SystemResetWarning,0820.1,4.99,000.00,020.2,019.2,000.0,028.4,021.4,6.4,0000.0,0001.23,0003.58,0000.99
2024-01-06 22:05:00,SystemResetWarning,0820.0,5.01,000.00,020.2,019.2,000.0,028.4,021.5,6.4,0000.0,0001.23,0003.61,0000.98
2024-01-06 22:06:00,SystemResetWarning,0820.1,5.01,000.00,020.2,019.2,000.0,028.4,021.5,6.4,0000.0,0001.21,0002.47,0000.97
2024-01-06 22:07:00,SystemResetWarning,0819.9,5.01,000.00,020.2,019.2,000.0,028.4,021.5,6.4,0000.0,0001.19,0002.86,0000.95
2024-01-06 22:08:00,SystemResetWarning,0819.9,5.00,000.00,020.2,019.2,000.0,028.4,021.4,6.4,0000.0,0001.18,0002.83,0000.94
2024-01-06 22:09:00,SystemResetWarning,0820.1,5.00,000.00,020.2,019.2,000.0,028.4,021.4,6.4,0000.0,0001.19,0002.79,0000.93
2024-01-06 22:10:00,SystemResetWarning,0820.1,4.99,000.00,020.2,019.1,000.0,028.4,021.4,6.4,0000.0,0001.21,0002.86,0000.94
2024-01-06 22:11:00,SystemResetWarning,0820.0,4.99,000.00,020.2,019.1,000.0,028.4,021.4,6.4,0000.0,0001.22,0002.96,0000.92
2024-01-06 22:12:00,SystemResetWarning,0820.1,5.00,000.00,020.2,019.1,000.0,028.4,021.4,6.4,0000.0,0001.21,0002.99,0000.91
2024-01-06 22:13:00,SystemResetWarning,0820.0,5.00,000.00,020.2,019.1,000.0,028.4,021.4,6.4,0000.0,0001.15,0002.74,0000.90
2024-01-06 22:14:00,SystemResetWarning,0819.9,5.01,000.00,020.2,019.1,000.0,028.4,021.4,6.4,0000.0,0001.12,0002.54,0000.88
2024-01-06 22:15:00,SystemResetWarning,0820.2,5.01,000.00,020.2,019.1,000.0,028.4,021.4,6.4,0000.0,0001.09,0002.46,0000.88
2024-01-06 22:16:00,SystemResetWarning,0820.1,5.00,000.00,020.2,019.1,000.0,028.4,021.4,6.4,0000.0,0001.07,0002.36,0000.88
2024-01-06 22:17:00,SystemResetWarning,0820.1,5.00,000.00,020.2,019.1,000.0,028.4,021.4,6.5,0000.0,0001.06,0002.32,0000.87
2024-01-06 22:18:00,SystemResetWarning,0820.0,4.99,000.00,020.2,019.1,000.0,028.4,021.5,6.5,0000.0,0001.05,0001.74,0000.87
2024-01-06 22:19:00,SystemResetWarning,0820.0,5.00,000.00,020.2,019.1,000.0,028.4,021.4,6.4,0000.0,0001.07,0002.26,0000.88
2024-01-06 22:20:00,SystemResetWarning,0820.0,5.00,000.00,020.2,019.1,000.0,028.4,021.4,6.4,0000.0,0001.09,0003.00,0000.86
2024-01-06 22:21:00,SystemResetWarning,0820.1,5.00,000.00,020.2,019.1,000.0,028.4,021.4,6.3,0000.0,0001.12,0003.19,0000.84
2024-01-06 22:22:00,SystemResetWarning,0820.0,5.00,000.00,020.2,019.1,000.0,028.4,021.4,6.4,0000.0,0001.17,0003.40,0000.85
2024-01-06 22:23:00,SystemResetWarning,0820.1,5.00,000.00,020.2,019.1,000.0,028.4,021.4,6.3,0000.0,0001.19,0003.74,0000.84
2024-01-06 22:24:00,SystemResetWarning,0820.0,5.01,000.00,020.2,019.1,000.0,028.4,021.4,6.3,0000.0,0001.28,0004.68,0000.83
2024-01-06 22:25:00,SystemResetWarning,0820.1,5.01,000.00,020.2,019.1,000.0,028.4,021.4,6.3,0000.0,0001.34,0005.24,0000.83
2024-01-06 22:26:00,SystemResetWarning,0820.1,5.00,000.00,020.2,019.1,000.0,028.4,021.5,6.4,0000.0,0001.35,0005.34,0000.83
2024-01-06 22:27:00,SystemResetWarning,0820.2,5.00,000.00,020.2,019.1,000.0,028.4,021.5,6.4,0000.0,0001.36,0005.40,0000.82
2024-01-06 22:28:00,SystemResetWarning,0820.3,5.00,000.00,020.2,019.1,000.0,028.4,021.5,6.3,0000.0,0001.40,0005.49,0000.83
2024-01-06 22:29:00,SystemResetWarning,0820.3,5.00,000.00,020.2,019.2,000.0,028.4,021.5,6.3,0000.0,0001.45,0005.61,0000.83
2024-01-06 22:30:00,SystemResetWarning,0820.1,5.00,000.00,020.2,019.2,000.0,028.4,021.5,6.3,0000.0,0001.47,0005.28,0000.82
2024-01-06 22:31:00,SystemResetWarning,0820.1,5.00,000.00,020.2,019.2,000.0,028.4,021.5,6.3,0000.0,0001.47,0004.58,0000.83
2024-01-06 22:32:00,SystemResetWarning,0820.1,4.99,000.00,020.2,019.2,000.0,028.4,021.5,6.3,0000.0,0001.43,0004.37,0000.83
2024-01-06 22:33:00,SystemResetWarning,0820.0,5.00,000.00,020.2,019.2,000.0,028.4,021.5,6.3,0000.0,0001.37,0004.03,0000.84
2024-01-06 22:34:00,SystemResetWarning,0820.1,5.00,000.00,020.2,019.2,000.0,028.4,021.5,6.3,0000.0,0001.35,0003.75,0000.84
2024-01-06 22:35:00,SystemResetWarning,0820.1,5.00,000.00,020.2,019.2,000.0,028.4,021.5,6.3,0000.0,0001.26,0004.60,0000.82
2024-01-06 22:36:00,SystemResetWarning,0820.1,5.01,000.00,020.2,019.2,000.0,028.5,021.4,6.3,0000.0,0001.22,0004.62,0000.82
2024-01-06 22:37:00,SystemResetWarning,0820.0,5.01,000.00,020.2,019.2,000.0,028.5,021.3,6.3,0000.0,0001.22,0004.55,0000.82
2024-01-06 22:38:00,SystemResetWarning,0820.1,5.00,000.00,020.2,019.2,000.0,028.4,021.3,6.3,0000.0,0001.25,0004.58,0000.82
2024-01-06 22:39:00,SystemResetWarning,0820.0,5.00,000.00,020.2,019.2,000.0,028.4,021.3,6.4,0000.0,0001.26,0004.65,0000.81
2024-01-06 22:40:00,SystemResetWarning,0820.1,4.99,000.00,020.1,019.3,000.0,028.4,021.2,6.4,0000.0,0001.22,0004.66,0000.80
2024-01-06 22:41:00,SystemResetWarning,0820.0,4.99,000.00,020.1,019.3,000.0,028.4,021.2,6.4,0000.0,0001.15,0004.39,0000.80
2024-01-06 22:42:00,SystemResetWarning,0820.1,4.99,000.00,020.1,019.2,000.0,028.4,021.2,6.4,0000.0,0001.11,0004.22,0000.80
2024-01-06 22:43:00,SystemResetWarning,0820.0,5.00,000.00,020.1,019.3,000.0,028.4,021.2,6.4,0000.0,0001.13,0004.77,0000.80
2024-01-06 22:44:00,SystemResetWarning,0820.2,5.01,000.00,020.1,019.3,000.0,028.4,021.2,6.4,0000.0,0001.15,0004.99,0000.80
2024-01-06 22:45:00,SystemResetWarning,0820.0,5.01,000.00,020.1,019.2,000.0,028.4,021.3,6.4,0000.0,0001.12,0005.12,0000.79
2024-01-06 22:46:00,SystemResetWarning,0820.1,5.00,000.00,020.1,019.2,000.0,028.4,021.3,6.5,0000.0,0001.12,0003.72,0000.80
2024-01-06 22:47:00,SystemResetWarning,0820.0,4.99,000.00,020.1,019.2,000.0,028.4,021.3,6.5,0000.0,0001.09,0003.18,0000.80
2024-01-06 22:48:00,SystemResetWarning,0820.1,4.99,000.00,020.1,019.2,000.0,028.4,021.3,6.6,0000.0,0001.09,0003.17,0000.81
2024-01-06 22:49:00,SystemResetWarning,0820.0,4.99,000.00,020.1,019.2,000.0,028.4,021.4,6.6,0000.0,0001.04,0003.07,0000.81
2024-01-06 22:50:00,SystemResetWarning,0820.0,5.00,000.00,020.1,019.2,000.0,028.4,021.4,6.6,0000.0,0001.00,0002.93,0000.81
2024-01-06 22:51:00,SystemResetWarning,0819.9,5.00,000.00,020.1,019.2,000.0,028.4,021.4,6.7,0000.0,0000.95,0002.68,0000.80
2024-01-06 22:52:00,SystemResetWarning,0819.9,5.01,000.00,020.1,019.2,000.0,028.4,021.4,6.7,0000.0,0000.95,0002.68,0000.80
2024-01-06 22:53:00,SystemResetWarning,0819.9,5.01,000.00,020.1,019.2,000.0,028.4,021.4,6.6,0000.0,0000.95,0002.69,0000.80
2024-01-06 22:54:00,SystemResetWarning,0820.0,5.01,000.00,020.1,019.2,000.0,028.4,021.4,6.6,0000.0,0000.96,0002.41,0000.80
2024-01-06 22:55:00,SystemResetWarning,0819.9,5.00,000.00,020.1,019.2,000.0,028.4,021.4,6.6,0000.0,0000.94,0002.22,0000.79
2024-01-06 22:56:00,SystemResetWarning,0820.0,4.99,000.00,020.2,019.2,000.0,028.4,021.4,6.6,0000.0,0000.96,0002.08,0000.80
2024-01-06 22:57:00,SystemResetWarning,0819.9,4.99,000.00,020.2,019.1,000.0,028.4,021.4,6.5,0000.0,0000.96,0001.54,0000.80
2024-01-06 22:58:00,SystemResetWarning,0820.0,5.00,000.00,020.2,019.1,000.0,028.4,021.4,6.5,0000.0,0000.98,0001.69,0000.80
2024-01-06 22:59:00,SystemResetWarning,0820.0,5.01,000.00,020.2,019.2,000.0,028.4,021.4,6.6,0000.0,0000.97,0003.20,0000.80
